Tracking 29892 objects as of 21-Nov-2024
HD Live streaming from Space Station
objects crossing your sky now

STARLINK-5296

Track STARLINK-5296 now!
10-day predictions
STARLINK-5296 is classified as:


NORAD ID: 55312
Int'l Code: 2023-010AV
Perigee: 577.0 km
Apogee: 581.3 km
Inclination: 70.0 °
Period: 96.1 minutes
Semi major axis: 6950 km
RCS: Unknown
Launch date: January 19, 2023
Source: United States (US)
Launch site: AIR FORCE WESTERN TEST RANGE (AFWTR)
Your satellite tracking list
Your tracking list is empty




NASA's NSSDC Master Catalog

Two Line Element Set (TLE):
1 55312U 23010AV  24325.89212821  .00001193  00000-0  10769-3 0  9991
2 55312  69.9981 118.8898 0003123 277.7710  82.3094 14.98347346102483
Source of the keplerian elements: AFSPC